[[{"header":{"parameterUnit":"m.s-1","parameterCategory":1,"la1":30.2991,"la2":30.254,"lo1":-89.0895,"lo2":-89.0444,"dy":0.0017,"dx":0.0017,"nx":28,"ny":28,"refTime":"2023-08-05T03:00:00:Z","depth":0,"parameterNumber":2,"parameterNumberName":"U-component_of_WINDS"},"data":[0,0,0,0,0,0,0,0,0,0,0,0,0,0,0,0,0,0,0,0,0,0,0,0,0,0,0,0,0,0,0,0,0,0,0,0,0,0,0,0,0,0,0,0,0,0,0,0,0,0,0,0,0,0,0,0,0,0,3.0921,3.0921,0,3.0993,3.0994,3.0994,3.0951,3.0949,3.0947,3.0945,3.1027,3.1031,3.1035,0,0,0,0,0,0,0,0,0,0,0,0,0,3.0753,3.0757,3.092,3.0921,3.0922,3.0993,3.0994,3.0995,3.0951,3.0949,3.0946,3.0944,3.1025,3.103,3.1035,0,0,0,0,0,0,0,0,0,0,0,0,0,3.0826,3.0758,3.092,3.0909,3.0909,3.0992,3.0994,3.0995,3.0952,3.0949,3.0945,3.0943,3.1024,3.103,3.1036,3.1137,0,0,3.1055,3.1057,0,0,0,0,0,0,0,0,3.0822,3.0832,3.091,3.091,3.091,3.0959,3.0965,3.1043,3.0953,3.0936,3.0945,3.0941,3.1007,3.1015,3.1035,3.1141,3.1145,3.1055,3.1059,3.1062,3.1063,0,0,0,0,0,0,0,3.0817,3.0829,3.0949,3.0911,3.0911,3.0903,3.091,3.0979,3.0989,3.0937,3.0934,3.0943,3.1007,3.1029,3.1037,3.1146,3.1055,3.1061,3.1064,3.1067,3.1342,3.1345,0,0,0,0,0,0,3.0812,3.0825,3.0947,3.0951,3.0857,3.0909,3.0916,3.0947,3.0988,3.0991,3.0945,3.094,3.102,3.103,3.104,3.1163,3.1062,3.1067,3.1071,3.1338,3.1342,3.1346,0,0,0,0,0,0,3.0808,3.0823,3.0944,3.0887,3.0902,3.0915,3.095,3.095,3.0972,3.0994,3.0996,3.0966,3.1018,3.1031,3.1113,3.1165,3.107,3.1076,3.1334,3.1339,3.1344,3.141,0,0,0,0,0,0,3.0804,3.0822,3.0858,3.0888,3.0905,3.1014,3.0953,3.0954,3.0982,3.0977,3.1014,3.1017,3.1017,3.1104,3.112,3.1172,3.1081,3.1329,3.1336,3.1343,3.1403,3.1417,3.1428,0,0,0,0,0,3.0798,3.0875,3.0861,3.0876,3.0951,3.1017,3.1027,3.1022,3.0987,3.1025,3.1039,3.1016,3.1157,3.1113,3.113,3.1185,3.1326,3.1334,3.1342,3.1397,3.1414,3.1428,0,0,0,0,0,0,3.0853,3.0879,3.0863,3.0952,3.0982,3.1009,3.1058,3.104,3.1083,3.1077,3.1071,3.108,3.1167,3.1184,3.1135,3.1287,3.1236,3.1248,3.1273,3.1289,3.1301,3.1296,3.1086,0,0,0,0,0,3.0875,3.0924,3.0945,3.1022,3.1037,3.1045,3.1074,3.1068,3.11,3.1114,3.1134,3.1169,3.1221,3.1255,3.1304,3.1405,3.1414,3.1452,3.1464,3.1475,3.1486,3.1543,3.156,3.1373,3.1373,3.1373,0,0,3.0922,3.0942,3.0974,3.1033,3.1056,3.111,3.1056,3.1115,3.1156,3.1123,3.1202,3.1219,3.1257,3.135,3.1392,3.1367,3.1539,3.1485,3.1493,3.1498,3.1553,3.1571,3.1586,3.1378,3.1377,3.1376,0,0,3.1036,3.1055,3.1121,3.1145,3.118,3.1185,3.1201,3.1231,3.124,3.1319,3.1296,3.1346,3.1435,3.1465,3.1491,3.1618,3.1599,3.1634,3.1701,3.1757,3.1772,3.1785,3.1832,3.1849,3.1645,3.1645,3.1645,0,3.1091,3.1168,3.1159,3.1219,3.1248,3.1218,3.1288,3.1313,3.1363,3.1385,3.1355,3.1468,3.1492,3.1592,3.1623,3.1645,3.1666,3.163,3.177,3.1783,3.1795,3.184,3.1858,3.1649,3.1648,3.1648,3.1648,0,3.1235,3.1289,3.134,3.1387,3.1421,3.1486,3.1489,3.1525,3.1516,3.1525,3.1608,3.1635,3.169,3.1713,3.1706,3.1814,3.1798,3.1769,3.1718,3.1817,3.186,3.1877,3.1655,3.1653,3.1652,3.1651,0,0,3.1385,3.1427,3.1446,3.1468,3.1505,3.1548,3.1613,3.1665,3.1697,3.1733,3.179,3.1867,3.1841,3.1872,3.1868,3.1916,3.2018,3.1882,3.1883,3.1909,3.2141,3.2163,3.2183,3.2005,3.2008,3.2011,3.2139,0,3.1503,3.1613,3.1608,3.1713,3.1765,3.1739,3.1796,3.1827,3.1837,3.1885,3.1898,3.1953,3.1914,3.1932,3.1979,3.1995,3.2065,3.1986,3.2061,3.2064,3.2053,3.2205,3.2229,3.2348,3.2155,3.2158,3.216,0,3.1654,3.1694,3.1804,3.1834,3.1856,3.1907,3.1955,3.2,3.2036,3.2041,3.2075,3.2063,3.2133,3.2079,3.2176,3.2123,3.2153,3.2166,3.2171,3.2179,3.2119,3.222,3.2385,3.2404,3.2186,3.2183,3.2182,0,3.1756,3.1837,3.1913,3.1933,3.197,3.2007,3.2025,3.2057,3.2089,3.2132,3.2154,3.2205,3.2234,3.2276,3.228,3.224,3.2379,3.2325,3.2387,3.2388,3.2419,3.2417,3.2594,3.2436,3.2436,3.2435,3.2435,0,3.1888,3.1957,3.1959,3.2007,3.2084,3.2078,3.2156,3.2171,3.22,3.2252,3.2233,3.2283,3.2285,3.2337,3.2341,3.2422,3.2435,3.2443,3.2444,3.2446,3.2445,3.2467,3.2459,3.244,3.2439,3.2438,3.2437,0,3.2015,3.2019,3.2101,3.213,3.2139,3.2195,3.2221,3.2268,3.2276,3.2343,3.2358,3.2373,3.2433,3.2441,3.2512,3.2515,3.2614,3.2605,3.2601,3.2601,3.2663,3.2658,3.2861,3.2889,3.2711,3.2713,3.2714,0,3.21,3.2152,3.2186,3.2219,3.2238,3.2291,3.2323,3.232,3.2356,3.2401,3.2443,3.2501,3.2547,3.2646,3.2665,3.272,3.2714,3.2781,3.2722,3.2723,3.2717,3.2715,3.2721,3.2793,3.2795,3.2797,3.2798,0,3.2252,3.2251,3.2297,3.2345,3.2384,3.2422,3.2457,3.2486,3.2488,3.2529,3.2589,3.2625,3.2698,3.2757,3.2811,3.2833,3.2818,3.2816,3.2834,3.2837,3.2834,3.2839,3.2634,3.2812,3.281,3.2809,3.2809,3.2808,3.2362,3.2408,3.2439,3.2492,3.2518,3.2552,3.2598,3.2612,3.2661,3.2718,3.2714,3.2782,3.2819,3.289,3.2916,3.297,3.2949,3.2974,3.2981,3.2987,3.2994,3.2824,3.298,3.298,3.2979,3.2979,3.2979,0,3.2514,3.2533,3.2581,3.2631,3.2674,3.2652,3.2691,3.2729,3.2788,3.2822,3.2868,3.2939,3.2996,3.302,3.3077,3.3117,3.3111,3.3132,3.313,3.3136,3.301,3.2989,3.3136,3.3136,3.3136,3.3136,3.3135,3.3135,3.2598,3.2675,3.2679,3.277,3.2789,3.2853,3.2878,3.2911,3.2938,3.3017,3.3064,3.3078,3.3109,3.3169,3.3222,3.3228,3.3251,3.3275,3.3278,3.316,3.3144,3.3129,3.311,3.328,3.328,3.34,3.3401,3.3402]},{"header":{"parameterUnit":"m.s-1","parameterCategory":1,"la1":30.2991,"la2":30.254,"lo1":-89.0895,"lo2":-89.0444,"dy":0.0017,"dx":0.0017,"nx":28,"ny":28,"refTime":"2023-08-05T03:00:00:Z","depth":0,"parameterNumber":3,"parameterNumberName":"V-component_of_WINDS"},"data":[0,0,0,0,0,0,0,0,0,0,0,0,0,0,0,0,0,0,0,0,0,0,0,0,0,0,0,0,0,0,0,0,0,0,0,0,0,0,0,0,0,0,0,0,0,0,0,0,0,0,0,0,0,0,0,0,0,0,2.0397,2.0398,0,2.0455,2.0456,2.0456,2.0473,2.0472,2.0472,2.0472,2.0528,2.053,2.0532,0,0,0,0,0,0,0,0,0,0,0,0,0,2.0297,2.0299,2.0397,2.0398,2.0399,2.0455,2.0456,2.0456,2.0473,2.0472,2.0472,2.0472,2.0528,2.053,2.0532,0,0,0,0,0,0,0,0,0,0,0,0,0,2.0346,2.0299,2.0397,2.0414,2.0416,2.0455,2.0456,2.0457,2.0473,2.0472,2.0472,2.0472,2.0527,2.0529,2.0532,2.0558,0,0,2.054,2.0541,0,0,0,0,0,0,0,0,2.0343,2.035,2.0411,2.0413,2.0415,2.0456,2.0441,2.049,2.0473,2.0451,2.0472,2.0471,2.0504,2.0509,2.0521,2.056,2.0563,2.0541,2.0542,2.0543,2.0544,0,0,0,0,0,0,0,2.034,2.0347,2.042,2.0412,2.0414,2.0417,2.0423,2.045,2.048,2.0453,2.0454,2.0461,2.0506,2.0518,2.0522,2.0564,2.054,2.0543,2.0544,2.0546,2.0623,2.0624,0,0,0,0,0,0,2.0334,2.0344,2.0418,2.0422,2.0377,2.0419,2.0426,2.0443,2.0479,2.0484,2.0461,2.0462,2.0514,2.0519,2.0524,2.0554,2.0543,2.0546,2.0547,2.0623,2.0623,2.0624,0,0,0,0,0,0,2.0332,2.0341,2.0416,2.0384,2.0393,2.0421,2.044,2.0445,2.0457,2.0486,2.0491,2.0469,2.0514,2.052,2.0549,2.0557,2.0547,2.0549,2.0622,2.0623,2.0623,2.0616,0,0,0,0,0,0,2.0329,2.034,2.0351,2.0384,2.0395,2.0441,2.0441,2.0446,2.0462,2.0463,2.0494,2.0499,2.0514,2.0544,2.0551,2.056,2.0552,2.0622,2.0622,2.0623,2.0616,2.0617,2.0617,0,0,0,0,0,2.0325,2.0347,2.0352,2.0361,2.041,2.0442,2.0448,2.0465,2.0463,2.0474,2.0491,2.0498,2.0554,2.0547,2.0555,2.0565,2.0621,2.0622,2.0623,2.0616,2.0617,2.0617,0,0,0,0,0,0,2.0315,2.0352,2.0357,2.0391,2.0413,2.0444,2.0459,2.0466,2.0489,2.0489,2.0508,2.0515,2.0541,2.0556,2.0547,2.0589,2.0588,2.059,2.0579,2.058,2.0581,2.0577,2.0554,0,0,0,0,0,2.0317,2.034,2.0371,2.0397,2.0408,2.0431,2.0445,2.0456,2.048,2.0489,2.0509,2.0531,2.0553,2.0567,2.059,2.0618,2.0623,2.0628,2.0628,2.0629,2.0631,2.0644,2.0646,2.0627,2.0627,2.0627,0,0,2.032,2.0343,2.0357,2.0395,2.0414,2.0436,2.0439,2.0463,2.0479,2.0493,2.0521,2.0535,2.056,2.0588,2.0601,2.0601,2.0637,2.063,2.063,2.0632,2.0645,2.0647,2.0648,2.0628,2.0628,2.0628,0,0,2.0338,2.0359,2.0381,2.0399,2.0427,2.0442,2.0447,2.0477,2.0487,2.0515,2.0525,2.0543,2.0582,2.0599,2.0612,2.0632,2.0638,2.0639,2.0642,2.0655,2.0656,2.0657,2.0663,2.0665,2.064,2.064,2.064,0,2.0339,2.0374,2.0392,2.0415,2.043,2.0443,2.0465,2.0481,2.0514,2.0524,2.0523,2.057,2.0588,2.0618,2.0622,2.0633,2.0638,2.0636,2.0655,2.0656,2.0658,2.0663,2.0665,2.064,2.064,2.064,2.064,0,2.0372,2.0396,2.0411,2.0443,2.0459,2.0482,2.0501,2.0515,2.0524,2.0538,2.0564,2.0586,2.0612,2.0619,2.0629,2.065,2.0649,2.0651,2.065,2.0659,2.0664,2.0666,2.064,2.064,2.064,2.064,0,0,2.0387,2.0426,2.0431,2.0444,2.0474,2.0492,2.0514,2.0539,2.055,2.0571,2.0588,2.0619,2.0621,2.0636,2.0646,2.0657,2.0669,2.0658,2.0659,2.0658,2.0691,2.0689,2.0691,2.0673,2.0673,2.0674,2.0689,0,2.0408,2.0448,2.0463,2.0495,2.0515,2.0526,2.0544,2.0563,2.0576,2.0594,2.0608,2.0629,2.063,2.0639,2.065,2.0665,2.0676,2.0664,2.0687,2.0688,2.0681,2.0695,2.0693,2.0707,2.0691,2.0692,2.0692,0,2.0438,2.0459,2.0493,2.0518,2.0527,2.0543,2.0566,2.0584,2.0604,2.0612,2.0628,2.0637,2.0657,2.0654,2.0681,2.0673,2.0682,2.0691,2.0691,2.0694,2.0691,2.0697,2.0711,2.0713,2.0696,2.0695,2.0695,0,2.0443,2.048,2.0505,2.0516,2.0546,2.0556,2.0569,2.0589,2.0602,2.0621,2.063,2.0651,2.0662,2.0677,2.0691,2.0687,2.0716,2.0714,2.0722,2.0721,2.0728,2.0727,2.0743,2.0735,2.0735,2.0735,2.0734,0,2.0464,2.0484,2.0507,2.0522,2.0544,2.056,2.058,2.0593,2.061,2.0627,2.0637,2.0651,2.0669,2.0685,2.0695,2.0715,2.072,2.0726,2.0728,2.0725,2.0724,2.0732,2.0731,2.0735,2.0735,2.0735,2.0735,0,2.0475,2.0491,2.0518,2.0543,2.055,2.0564,2.0585,2.0599,2.0611,2.0631,2.0637,2.0656,2.0675,2.069,2.0715,2.0722,2.0742,2.0745,2.0735,2.0737,2.0743,2.0742,2.0765,2.0768,2.0757,2.0757,2.0757,0,2.0487,2.0502,2.0528,2.054,2.0553,2.0572,2.0585,2.06,2.0612,2.0635,2.0646,2.0666,2.0683,2.0712,2.0728,2.0746,2.0749,2.0756,2.0752,2.0747,2.0748,2.0747,2.0747,2.0756,2.0756,2.0756,2.0756,0,2.0506,2.0513,2.0532,2.0553,2.0568,2.0585,2.0602,2.0611,2.0628,2.0642,2.0662,2.0675,2.07,2.0719,2.0738,2.0749,2.0755,2.0757,2.076,2.0756,2.075,2.0752,2.0736,2.0757,2.0757,2.0757,2.0757,2.0757,2.0517,2.053,2.055,2.057,2.0584,2.0599,2.0613,2.0626,2.0643,2.0665,2.0672,2.0692,2.0709,2.0736,2.0747,2.0762,2.0762,2.0766,2.0767,2.0768,2.0767,2.0747,2.0765,2.0765,2.0766,2.0766,2.0766,0,2.0536,2.0548,2.0566,2.059,2.0605,2.0609,2.0627,2.0639,2.0657,2.0673,2.0689,2.071,2.0728,2.0743,2.0761,2.077,2.0773,2.0774,2.0773,2.0775,2.0766,2.0762,2.0771,2.0771,2.0771,2.0771,2.0771,2.0771,2.0547,2.0569,2.0577,2.0605,2.0618,2.0638,2.0648,2.0661,2.0673,2.0697,2.0712,2.0722,2.0737,2.0756,2.0771,2.0775,2.0781,2.0781,2.0786,2.0777,2.0776,2.0776,2.0772,2.0783,2.0783,2.0794,2.0794,2.0794]}]]